Time,TemperatureF,DewpointF,PressureIn,WindDirection,WindDirectionDegrees,WindSpeedMPH,WindSpeedGustMPH,Humidity,HourlyPrecipIn,Conditions,Clouds,dailyrainin,SoftwareType,DateUTC
2013-04-11 00:00:00,67.4,57.7,29.91,South,171,0.0,0.0,64,0.00,,,0.00,dv,2013-04-11 04:00:00,
2013-04-11 00:05:00,67.3,57.6,29.90,South,171,0.0,0.0,64,0.00,,,0.00,dv,2013-04-11 04:05:00,
2013-04-11 00:10:00,67.0,57.3,29.91,South,171,0.0,0.0,64,0.00,,,0.00,dv,2013-04-11 04:10:00,
2013-04-11 00:15:00,66.8,57.4,29.91,South,171,0.0,0.0,65,0.00,,,0.00,dv,2013-04-11 04:15:00,
2013-04-11 00:20:00,66.6,57.2,29.91,South,171,0.0,0.0,65,0.00,,,0.00,dv,2013-04-11 04:20:00,
2013-04-11 00:25:00,66.5,57.1,29.91,South,171,0.0,0.0,65,0.00,,,0.00,dv,2013-04-11 04:25:00,
2013-04-11 00:30:00,66.3,57.0,29.91,South,171,0.0,0.0,65,0.00,,,0.00,dv,2013-04-11 04:30:00,
2013-04-11 00:35:00,66.1,57.1,29.91,South,171,0.0,0.0,66,0.00,,,0.00,dv,2013-04-11 04:35:00,
2013-04-11 00:40:00,65.9,56.9,29.91,South,171,0.0,0.0,66,0.00,,,0.00,dv,2013-04-11 04:40:00,
2013-04-11 00:45:00,65.8,57.1,29.91,South,171,0.0,0.0,67,0.00,,,0.00,dv,2013-04-11 04:45:00,
2013-04-11 00:50:00,65.6,56.9,29.91,South,171,0.0,0.0,67,0.00,,,0.00,dv,2013-04-11 04:50:00,
2013-04-11 01:00:00,65.2,56.9,29.91,South,171,0.0,0.0,68,0.00,,,0.00,dv,2013-04-11 05:00:00,
2013-04-11 01:05:00,65.1,56.8,29.92,South,171,0.0,0.0,68,0.00,,,0.00,dv,2013-04-11 05:05:00,
2013-04-11 01:10:00,64.9,56.6,29.92,South,171,0.0,0.0,68,0.00,,,0.00,dv,2013-04-11 05:10:00,
2013-04-11 01:15:00,64.8,56.5,29.92,South,171,0.0,0.0,68,0.00,,,0.00,dv,2013-04-11 05:15:00,
2013-04-11 01:20:00,64.7,56.7,29.92,South,171,0.0,0.0,69,0.00,,,0.00,dv,2013-04-11 05:20:00,
2013-04-11 01:25:00,64.5,56.5,29.91,South,171,0.0,0.0,69,0.00,,,0.00,dv,2013-04-11 05:25:00,
2013-04-11 01:30:00,64.3,56.6,29.91,South,171,0.0,0.0,70,0.00,,,0.00,dv,2013-04-11 05:30:00,
2013-04-11 01:35:00,64.1,56.4,29.92,South,171,0.0,0.0,70,0.00,,,0.00,dv,2013-04-11 05:35:00,
2013-04-11 01:40:00,64.0,56.3,29.91,South,171,0.0,0.0,70,0.00,,,0.00,dv,2013-04-11 05:40:00,
2013-04-11 01:45:00,63.8,56.2,29.92,South,171,0.0,0.0,70,0.00,,,0.00,dv,2013-04-11 05:45:00,
2013-04-11 01:50:00,63.6,56.0,29.92,South,171,0.0,0.0,70,0.00,,,0.00,dv,2013-04-11 05:50:00,
2013-04-11 01:55:00,63.5,56.2,29.92,South,171,0.0,0.0,71,0.00,,,0.00,dv,2013-04-11 05:55:00,
2013-04-11 02:00:00,63.4,56.1,29.92,South,171,0.0,0.0,71,0.00,,,0.00,dv,2013-04-11 06:00:00,
2013-04-11 02:05:00,63.3,56.0,29.91,South,171,0.0,0.0,71,0.00,,,0.00,dv,2013-04-11 06:05:00,
2013-04-11 02:10:00,63.2,55.9,29.91,South,172,0.0,0.0,71,0.00,,,0.00,dv,2013-04-11 06:10:00,
2013-04-11 02:15:00,63.2,55.9,29.91,South,171,0.0,0.0,71,0.00,,,0.00,dv,2013-04-11 06:15:00,
2013-04-11 02:20:00,63.1,55.8,29.91,South,171,0.0,0.0,71,0.00,,,0.00,dv,2013-04-11 06:20:00,
2013-04-11 02:25:00,63.0,55.7,29.91,South,171,0.0,0.0,71,0.00,,,0.00,dv,2013-04-11 06:25:00,
2013-04-11 02:30:00,62.9,55.6,29.90,South,171,0.0,0.0,71,0.00,,,0.00,dv,2013-04-11 06:30:00,
2013-04-11 02:35:00,62.9,55.6,29.90,South,171,0.0,0.0,71,0.00,,,0.00,dv,2013-04-11 06:35:00,
2013-04-11 02:40:00,62.8,55.5,29.90,South,171,0.0,0.0,71,0.00,,,0.00,dv,2013-04-11 06:40:00,
2013-04-11 02:45:00,62.8,55.5,29.89,South,171,0.0,0.0,71,0.00,,,0.00,dv,2013-04-11 06:45:00,
2013-04-11 02:50:00,62.7,55.4,29.89,South,171,0.0,0.0,71,0.00,,,0.00,dv,2013-04-11 06:50:00,
2013-04-11 02:55:00,62.7,55.7,29.90,South,171,0.0,0.0,72,0.00,,,0.00,dv,2013-04-11 06:55:00,
2013-04-11 03:00:00,62.6,55.3,29.90,South,171,0.0,0.0,71,0.00,,,0.00,dv,2013-04-11 07:00:00,
2013-04-11 03:05:00,62.5,55.5,29.89,South,171,0.0,0.0,72,0.00,,,0.00,dv,2013-04-11 07:05:00,
2013-04-11 03:10:00,62.5,55.5,29.89,South,171,0.0,0.0,72,0.00,,,0.00,dv,2013-04-11 07:10:00,
2013-04-11 03:15:00,62.4,55.4,29.89,South,171,0.0,0.0,72,0.00,,,0.00,dv,2013-04-11 07:15:00,
2013-04-11 03:20:00,62.1,55.4,29.89,South,171,0.0,0.0,73,0.00,,,0.00,dv,2013-04-11 07:20:00,
2013-04-11 03:25:00,61.8,55.1,29.89,South,171,0.0,0.0,73,0.00,,,0.00,dv,2013-04-11 07:25:00,
2013-04-11 03:30:00,61.7,55.0,29.89,South,171,0.0,0.0,73,0.00,,,0.00,dv,2013-04-11 07:30:00,
2013-04-11 03:35:00,61.6,55.2,29.88,South,171,0.0,0.0,74,0.00,,,0.00,dv,2013-04-11 07:35:00,
2013-04-11 03:40:00,61.4,55.0,29.89,South,171,0.0,0.0,74,0.00,,,0.00,dv,2013-04-11 07:40:00,
2013-04-11 03:45:00,61.3,54.9,29.89,South,171,0.0,0.0,74,0.00,,,0.00,dv,2013-04-11 07:45:00,
2013-04-11 03:50:00,61.2,54.8,29.89,South,171,0.0,0.0,74,0.00,,,0.00,dv,2013-04-11 07:50:00,
2013-04-11 04:00:00,60.9,54.8,29.89,South,172,0.0,0.0,75,0.00,,,0.00,dv,2013-04-11 08:00:00,
2013-04-11 04:05:00,60.7,54.9,29.88,South,171,0.0,0.0,76,0.00,,,0.00,dv,2013-04-11 08:05:00,
2013-04-11 04:10:00,60.5,54.7,29.89,South,172,0.0,0.0,76,0.00,,,0.00,dv,2013-04-11 08:10:00,
2013-04-11 04:15:00,60.4,54.6,29.88,South,171,0.0,0.0,76,0.00,,,0.00,dv,2013-04-11 08:15:00,
2013-04-11 04:20:00,60.3,54.5,29.89,South,171,0.0,0.0,76,0.00,,,0.00,dv,2013-04-11 08:20:00,
2013-04-11 04:25:00,60.1,54.6,29.89,South,171,0.0,0.0,77,0.00,,,0.00,dv,2013-04-11 08:25:00,
2013-04-11 04:35:00,60.0,54.8,29.89,South,171,0.0,0.0,78,0.00,,,0.00,dv,2013-04-11 08:35:00,
2013-04-11 04:40:00,60.0,54.8,29.89,South,171,0.0,0.0,78,0.00,,,0.00,dv,2013-04-11 08:40:00,
2013-04-11 04:45:00,60.1,55.1,29.89,South,171,0.0,0.0,79,0.00,,,0.00,dv,2013-04-11 08:45:00,
2013-04-11 04:50:00,60.2,55.2,29.88,South,171,0.0,0.0,79,0.00,,,0.00,dv,2013-04-11 08:50:00,
2013-04-11 04:55:00,60.3,55.3,29.88,South,171,0.0,0.0,79,0.00,,,0.00,dv,2013-04-11 08:55:00,
2013-04-11 05:00:00,60.4,55.4,29.89,South,171,0.0,0.0,79,0.00,,,0.00,dv,2013-04-11 09:00:00,
2013-04-11 05:05:00,60.5,55.5,29.88,South,171,0.0,0.0,79,0.00,,,0.00,dv,2013-04-11 09:05:00,
2013-04-11 05:10:00,60.5,55.5,29.89,South,171,0.0,0.0,79,0.00,,,0.00,dv,2013-04-11 09:10:00,
2013-04-11 05:15:00,60.6,55.6,29.89,South,171,0.0,0.0,79,0.00,,,0.00,dv,2013-04-11 09:15:00,
2013-04-11 05:20:00,60.6,55.6,29.89,South,171,0.0,0.0,79,0.00,,,0.00,dv,2013-04-11 09:20:00,
2013-04-11 05:25:00,60.6,55.6,29.89,South,171,0.0,0.0,79,0.00,,,0.00,dv,2013-04-11 09:25:00,
2013-04-11 05:30:00,60.6,55.6,29.89,South,171,0.0,0.0,79,0.00,,,0.00,dv,2013-04-11 09:30:00,
2013-04-11 05:35:00,60.4,55.2,29.89,South,171,0.0,0.0,78,0.00,,,0.00,dv,2013-04-11 09:35:00,
2013-04-11 05:40:00,60.2,55.0,29.89,South,171,0.0,0.0,78,0.00,,,0.00,dv,2013-04-11 09:40:00,
2013-04-11 05:45:00,60.0,54.8,29.89,South,171,0.0,0.0,78,0.00,,,0.00,dv,2013-04-11 09:45:00,
2013-04-11 05:50:00,59.9,54.9,29.89,South,171,0.0,0.0,79,0.00,,,0.00,dv,2013-04-11 09:50:00,
2013-04-11 05:55:00,59.8,54.6,29.89,South,171,0.0,0.0,78,0.00,,,0.00,dv,2013-04-11 09:55:00,
2013-04-11 06:00:00,59.7,54.7,29.90,South,171,0.0,0.0,79,0.00,,,0.00,dv,2013-04-11 10:00:00,
2013-04-11 06:10:00,59.4,54.4,29.89,South,171,0.0,0.0,79,0.00,,,0.00,dv,2013-04-11 10:10:00,
2013-04-11 06:15:00,59.3,54.6,29.89,South,171,0.0,0.0,80,0.00,,,0.00,dv,2013-04-11 10:15:00,
2013-04-11 06:20:00,59.2,54.5,29.89,South,171,0.0,0.0,80,0.00,,,0.00,dv,2013-04-11 10:20:00,
2013-04-11 06:25:00,59.2,54.5,29.89,South,171,0.0,0.0,80,0.00,,,0.00,dv,2013-04-11 10:25:00,
2013-04-11 06:30:00,59.1,54.7,29.89,South,171,0.0,0.0,81,0.00,,,0.00,dv,2013-04-11 10:30:00,
2013-04-11 06:35:00,58.9,54.5,29.89,South,171,0.0,0.0,81,0.00,,,0.00,dv,2013-04-11 10:35:00,
2013-04-11 06:40:00,58.8,54.6,29.89,South,171,0.0,0.0,82,0.00,,,0.00,dv,2013-04-11 10:40:00,
2013-04-11 06:45:00,58.7,54.3,29.89,South,171,0.0,0.0,81,0.00,,,0.00,dv,2013-04-11 10:45:00,
2013-04-11 06:50:00,58.7,54.5,29.90,South,171,0.0,0.0,82,0.00,,,0.00,dv,2013-04-11 10:50:00,
2013-04-11 06:55:00,58.7,54.5,29.90,South,171,0.0,0.0,82,0.00,,,0.00,dv,2013-04-11 10:55:00,
2013-04-11 07:00:00,58.6,54.4,29.90,South,171,0.0,0.0,82,0.00,,,0.00,dv,2013-04-11 11:00:00,
2013-04-11 07:05:00,58.6,54.7,29.90,South,171,0.0,0.0,83,0.00,,,0.00,dv,2013-04-11 11:05:00,
2013-04-11 07:10:00,58.6,54.7,29.90,South,171,0.0,0.0,83,0.00,,,0.00,dv,2013-04-11 11:10:00,
2013-04-11 07:15:00,58.6,54.9,29.90,South,171,0.0,0.0,84,0.00,,,0.00,dv,2013-04-11 11:15:00,
2013-04-11 07:20:00,58.5,54.8,29.90,South,171,0.0,0.0,84,0.00,,,0.00,dv,2013-04-11 11:20:00,
2013-04-11 07:25:00,58.5,54.6,29.90,South,171,0.0,0.0,83,0.00,,,0.00,dv,2013-04-11 11:25:00,
2013-04-11 07:30:00,58.4,54.5,29.90,South,171,0.0,0.0,83,0.00,,,0.00,dv,2013-04-11 11:30:00,
2013-04-11 07:35:00,58.4,54.5,29.91,South,171,0.0,0.0,83,0.00,,,0.00,dv,2013-04-11 11:35:00,
2013-04-11 07:40:00,58.4,54.7,29.91,South,171,0.0,0.0,84,0.00,,,0.00,dv,2013-04-11 11:40:00,
2013-04-11 07:45:00,58.5,54.8,29.91,South,171,0.0,0.0,84,0.00,,,0.00,dv,2013-04-11 11:45:00,
2013-04-11 07:50:00,58.5,54.8,29.91,South,171,0.0,0.0,84,0.00,,,0.00,dv,2013-04-11 11:50:00,
2013-04-11 07:55:00,58.6,54.9,29.91,South,171,0.0,0.0,84,0.00,,,0.00,dv,2013-04-11 11:55:00,
2013-04-11 08:00:00,58.7,55.0,29.92,South,171,0.0,0.0,84,0.00,,,0.00,dv,2013-04-11 12:00:00,
2013-04-11 08:05:00,58.8,55.4,29.92,South,171,0.0,0.0,85,0.00,,,0.00,dv,2013-04-11 12:05:00,
2013-04-11 08:10:00,59.0,55.6,29.91,South,171,0.0,0.0,85,0.00,,,0.00,dv,2013-04-11 12:10:00,
2013-04-11 08:15:00,59.1,55.7,29.92,South,172,0.0,0.0,85,0.00,,,0.00,dv,2013-04-11 12:15:00,
2013-04-11 08:20:00,59.1,55.7,29.92,South,171,0.0,0.0,85,0.00,,,0.00,dv,2013-04-11 12:20:00,
2013-04-11 08:25:00,59.2,55.5,29.92,South,171,0.0,0.0,84,0.00,,,0.00,dv,2013-04-11 12:25:00,
2013-04-11 08:30:00,59.3,55.6,29.92,South,171,0.0,0.0,84,0.00,,,0.00,dv,2013-04-11 12:30:00,
2013-04-11 08:35:00,59.5,56.1,29.92,South,171,0.0,0.0,85,0.00,,,0.00,dv,2013-04-11 12:35:00,
2013-04-11 08:40:00,59.6,56.2,29.92,South,170,0.0,0.0,85,0.00,,,0.00,dv,2013-04-11 12:40:00,
2013-04-11 08:45:00,59.8,56.4,29.92,South,170,0.0,0.0,85,0.00,,,0.00,dv,2013-04-11 12:45:00,
2013-04-11 08:50:00,60.0,56.6,29.92,South,170,0.0,0.0,85,0.00,,,0.00,dv,2013-04-11 12:50:00,
2013-04-11 08:55:00,60.1,56.7,29.92,South,170,0.0,0.0,85,0.00,,,0.00,dv,2013-04-11 12:55:00,
2013-04-11 09:00:00,60.3,56.9,29.92,South,170,0.0,0.0,85,0.00,,,0.00,dv,2013-04-11 13:00:00,
2013-04-11 09:05:00,60.6,57.4,29.92,South,169,1.6,1.6,86,0.00,,,0.00,dv,2013-04-11 13:05:00,
2013-04-11 09:10:00,61.0,57.8,29.92,South,170,0.0,0.0,86,0.00,,,0.00,dv,2013-04-11 13:10:00,
2013-04-11 09:15:00,61.4,58.2,29.92,South,169,0.0,0.0,86,0.00,,,0.00,dv,2013-04-11 13:15:00,
2013-04-11 09:20:00,61.9,58.7,29.92,South,170,0.0,0.0,86,0.00,,,0.00,dv,2013-04-11 13:20:00,
2013-04-11 09:25:00,62.3,59.1,29.92,South,170,1.6,1.6,86,0.00,,,0.00,dv,2013-04-11 13:25:00,
2013-04-11 09:30:00,62.6,58.8,29.92,South,170,1.6,1.6,84,0.00,,,0.00,dv,2013-04-11 13:30:00,
2013-04-11 09:35:00,63.0,59.2,29.92,South,169,0.0,0.0,84,0.00,,,0.00,dv,2013-04-11 13:35:00,
2013-04-11 09:40:00,63.6,59.6,29.92,SSE,151,1.6,1.6,83,0.00,,,0.00,dv,2013-04-11 13:40:00,
2013-04-11 09:45:00,64.3,59.7,29.91,SSE,151,1.6,1.6,81,0.00,,,0.00,dv,2013-04-11 13:45:00,
2013-04-11 09:50:00,64.9,59.8,29.91,SSE,152,1.6,1.6,79,0.00,,,0.00,dv,2013-04-11 13:50:00,
2013-04-11 09:55:00,65.5,60.1,29.91,SE,142,1.6,1.6,78,0.00,,,0.00,dv,2013-04-11 13:55:00,
2013-04-11 10:00:00,66.1,60.4,29.91,SE,133,1.6,1.6,77,0.00,,,0.00,dv,2013-04-11 14:00:00,
2013-04-11 10:10:00,67.0,60.7,29.91,SE,134,0.0,0.0,75,0.00,,,0.00,dv,2013-04-11 14:10:00,
2013-04-11 10:15:00,67.4,60.8,29.91,SE,134,0.0,0.0,74,0.00,,,0.00,dv,2013-04-11 14:15:00,
2013-04-11 10:20:00,67.7,61.1,29.91,SE,134,1.6,1.6,74,0.00,,,0.00,dv,2013-04-11 14:20:00,
2013-04-11 10:25:00,67.9,60.7,29.91,SE,134,1.6,1.6,72,0.00,,,0.00,dv,2013-04-11 14:25:00,
2013-04-11 10:30:00,68.3,61.0,29.91,SE,134,1.6,1.6,72,0.00,,,0.00,dv,2013-04-11 14:30:00,
2013-04-11 10:35:00,68.6,60.4,29.91,ESE,111,1.6,1.6,69,0.00,,,0.00,dv,2013-04-11 14:35:00,
2013-04-11 10:40:00,68.9,60.4,29.91,East,81,3.2,3.2,68,0.00,,,0.00,dv,2013-04-11 14:40:00,
2013-04-11 10:45:00,69.2,60.3,29.91,East,81,0.0,0.0,67,0.00,,,0.00,dv,2013-04-11 14:45:00,
2013-04-11 10:50:00,69.6,60.4,29.91,West,264,4.8,4.8,66,0.00,,,0.00,dv,2013-04-11 14:50:00,
2013-04-11 10:55:00,69.8,60.6,29.91,NNE,31,1.6,1.6,66,0.00,,,0.00,dv,2013-04-11 14:55:00,
2013-04-11 11:00:00,70.1,60.5,29.91,SSW,194,4.8,4.8,65,0.00,,,0.00,dv,2013-04-11 15:00:00,
2013-04-11 11:05:00,70.6,61.0,29.91,South,182,1.6,1.6,65,0.00,,,0.00,dv,2013-04-11 15:05:00,
2013-04-11 11:10:00,71.1,60.4,29.91,NW,307,4.8,4.8,62,0.00,,,0.00,dv,2013-04-11 15:10:00,
2013-04-11 11:15:00,71.5,60.8,29.90,NW,307,0.0,0.0,62,0.00,,,0.00,dv,2013-04-11 15:15:00,
2013-04-11 11:20:00,71.8,60.8,29.91,WNW,297,3.2,3.2,61,0.00,,,0.00,dv,2013-04-11 15:20:00,
2013-04-11 11:25:00,72.1,60.7,29.90,North,354,1.6,1.6,60,0.00,,,0.00,dv,2013-04-11 15:25:00,
2013-04-11 11:30:00,72.4,61.0,29.90,SE,139,1.6,1.6,60,0.00,,,0.00,dv,2013-04-11 15:30:00,
2013-04-11 11:35:00,72.8,61.0,29.90,SW,227,14.5,14.5,59,0.00,,,0.00,dv,2013-04-11 15:35:00,
2013-04-11 11:45:00,73.0,61.1,29.90,WSW,239,6.4,6.4,59,0.00,,,0.00,dv,2013-04-11 15:45:00,
2013-04-11 11:50:00,73.1,61.2,29.89,WSW,247,3.2,3.2,59,0.00,,,0.00,dv,2013-04-11 15:50:00,
2013-04-11 11:55:00,73.3,61.1,29.90,WSW,248,4.8,4.8,58,0.00,,,0.00,dv,2013-04-11 15:55:00,
2013-04-11 12:00:00,73.4,61.1,29.89,SW,218,4.8,4.8,58,0.00,,,0.00,dv,2013-04-11 16:00:00,
2013-04-11 12:05:00,73.3,61.4,29.89,WSW,241,3.2,3.2,59,0.00,,,0.00,dv,2013-04-11 16:05:00,
2013-04-11 12:10:00,73.4,61.5,29.89,SW,217,1.6,1.6,59,0.00,,,0.00,dv,2013-04-11 16:10:00,
2013-04-11 12:15:00,73.7,61.8,29.89,SSW,206,3.2,3.2,59,0.00,,,0.00,dv,2013-04-11 16:15:00,
2013-04-11 12:20:00,74.1,61.8,29.88,ENE,57,4.8,4.8,58,0.00,,,0.00,dv,2013-04-11 16:20:00,
2013-04-11 12:25:00,74.5,61.4,29.88,WSW,258,12.9,12.9,56,0.00,,,0.00,dv,2013-04-11 16:25:00,
2013-04-11 12:30:00,74.5,61.8,29.88,SSW,199,4.8,4.8,57,0.00,,,0.00,dv,2013-04-11 16:30:00,
2013-04-11 12:35:00,74.6,61.9,29.87,WSW,241,3.2,3.2,57,0.00,,,0.00,dv,2013-04-11 16:35:00,
2013-04-11 12:45:00,74.7,61.6,29.87,SSE,154,4.8,4.8,56,0.00,,,0.00,dv,2013-04-11 16:45:00,
2013-04-11 12:50:00,74.6,61.9,29.87,WSW,240,6.4,6.4,57,0.00,,,0.00,dv,2013-04-11 16:50:00,
2013-04-11 12:55:00,74.5,61.8,29.86,SW,224,4.8,4.8,57,0.00,,,0.00,dv,2013-04-11 16:55:00,
2013-04-11 13:00:00,74.4,61.7,29.86,WNW,286,3.2,3.2,57,0.00,,,0.00,dv,2013-04-11 17:00:00,
2013-04-11 13:05:00,74.3,61.6,29.86,WSW,245,4.8,4.8,57,0.00,,,0.00,dv,2013-04-11 17:05:00,
2013-04-11 13:10:00,74.3,62.0,29.86,SW,225,12.9,12.9,58,0.00,,,0.00,dv,2013-04-11 17:10:00,
2013-04-11 13:15:00,74.4,62.1,29.86,SSW,195,1.6,1.6,58,0.00,,,0.00,dv,2013-04-11 17:15:00,
2013-04-11 13:20:00,74.5,61.8,29.86,WNW,288,6.4,6.4,57,0.00,,,0.00,dv,2013-04-11 17:20:00,
2013-04-11 13:25:00,74.6,61.9,29.85,East,82,1.6,1.6,57,0.00,,,0.00,dv,2013-04-11 17:25:00,
2013-04-11 13:30:00,74.7,62.3,29.85,ENE,67,3.2,3.2,58,0.00,,,0.00,dv,2013-04-11 17:30:00,
2013-04-11 13:35:00,74.8,62.4,29.84,ENE,58,9.7,9.7,58,0.00,,,0.00,dv,2013-04-11 17:35:00,
2013-04-11 13:40:00,74.9,62.5,29.84,SW,230,6.4,6.4,58,0.00,,,0.00,dv,2013-04-11 17:40:00,
2013-04-11 13:45:00,74.9,62.5,29.83,SW,230,0.0,0.0,58,0.00,,,0.00,dv,2013-04-11 17:45:00,
2013-04-11 13:55:00,75.1,62.7,29.83,SW,224,4.8,4.8,58,0.00,,,0.00,dv,2013-04-11 17:55:00,
2013-04-11 14:00:00,75.4,62.6,29.83,WSW,240,4.8,4.8,57,0.00,,,0.00,dv,2013-04-11 18:00:00,
2013-04-11 14:05:00,75.8,63.0,29.82,South,182,8.1,8.1,57,0.00,,,0.00,dv,2013-04-11 18:05:00,
2013-04-11 14:10:00,76.5,62.8,29.82,SSW,193,4.8,4.8,55,0.00,,,0.00,dv,2013-04-11 18:10:00,
2013-04-11 14:15:00,77.0,63.3,29.82,South,185,0.0,0.0,55,0.00,,,0.00,dv,2013-04-11 18:15:00,
2013-04-11 14:20:00,77.5,63.4,29.81,West,270,1.6,1.6,54,0.00,,,0.00,dv,2013-04-11 18:20:00,
2013-04-11 14:25:00,77.6,63.4,29.81,West,260,1.6,1.6,54,0.00,,,0.00,dv,2013-04-11 18:25:00,
2013-04-11 14:30:00,77.5,63.4,29.81,ESE,116,4.8,4.8,54,0.00,,,0.00,dv,2013-04-11 18:30:00,
2013-04-11 14:35:00,77.2,63.1,29.80,ESE,119,1.6,1.6,54,0.00,,,0.00,dv,2013-04-11 18:35:00,
2013-04-11 14:40:00,76.9,63.2,29.80,SE,137,3.2,3.2,55,0.00,,,0.00,dv,2013-04-11 18:40:00,
2013-04-11 14:45:00,76.8,63.1,29.80,SSW,208,4.8,4.8,55,0.00,,,0.00,dv,2013-04-11 18:45:00,
2013-04-11 14:55:00,77.3,63.6,29.78,SSE,149,3.2,3.2,55,0.00,,,0.00,dv,2013-04-11 18:55:00,
2013-04-11 15:00:00,77.5,64.2,29.77,WSW,240,4.8,4.8,56,0.00,,,0.00,dv,2013-04-11 19:00:00,
2013-04-11 15:05:00,77.6,64.2,29.77,WSW,238,4.8,4.8,56,0.00,,,0.00,dv,2013-04-11 19:05:00,
2013-04-11 15:10:00,77.8,64.0,29.76,South,190,9.7,9.7,55,0.00,,,0.00,dv,2013-04-11 19:10:00,
2013-04-11 15:15:00,77.9,64.1,29.76,SW,230,4.8,4.8,55,0.00,,,0.00,dv,2013-04-11 19:15:00,
2013-04-11 15:20:00,77.6,63.8,29.75,SW,229,1.6,1.6,55,0.00,,,0.00,dv,2013-04-11 19:20:00,
2013-04-11 15:25:00,77.3,64.4,29.75,SW,229,3.2,3.2,57,0.00,,,0.00,dv,2013-04-11 19:25:00,
2013-04-11 15:30:00,76.7,63.4,29.74,NNE,30,4.8,4.8,56,0.00,,,0.00,dv,2013-04-11 19:30:00,
2013-04-11 15:35:00,76.3,66.4,29.75,WSW,242,6.4,6.4,65,0.00,,,0.00,dv,2013-04-11 19:35:00,
2013-04-11 15:40:00,75.4,66.2,29.74,WSW,242,1.6,1.6,67,0.01,,,0.01,dv,2013-04-11 19:40:00,
2013-04-11 15:45:00,74.6,67.0,29.75,SW,230,6.4,6.4,72,0.01,,,0.01,dv,2013-04-11 19:45:00,
2013-04-11 15:50:00,73.3,66.1,29.75,SSW,210,9.7,9.7,73,0.03,,,0.03,dv,2013-04-11 19:50:00,
2013-04-11 15:55:00,71.9,65.7,29.73,West,268,4.8,4.8,76,0.03,,,0.03,dv,2013-04-11 19:55:00,
2013-04-11 16:00:00,71.3,66.2,29.74,West,268,1.6,1.6,80,0.03,,,0.03,dv,2013-04-11 20:00:00,
2013-04-11 16:05:00,71.2,67.0,29.73,West,267,3.2,3.2,83,0.03,,,0.03,dv,2013-04-11 20:05:00,
2013-04-11 16:10:00,71.3,67.3,29.73,WSW,251,1.6,1.6,84,0.03,,,0.03,dv,2013-04-11 20:10:00,
2013-04-11 16:15:00,71.3,67.3,29.72,WSW,251,0.0,0.0,84,0.03,,,0.03,dv,2013-04-11 20:15:00,
2013-04-11 16:20:00,71.4,67.7,29.71,WSW,251,0.0,0.0,85,0.03,,,0.03,dv,2013-04-11 20:20:00,
2013-04-11 16:25:00,71.6,68.2,29.72,WSW,251,0.0,0.0,86,0.03,,,0.03,dv,2013-04-11 20:25:00,
2013-04-11 16:30:00,71.9,68.7,29.71,WSW,251,1.6,1.6,87,0.04,,,0.04,dv,2013-04-11 20:30:00,
2013-04-11 16:40:00,72.4,68.4,29.71,WSW,257,1.6,1.6,84,0.03,,,0.04,dv,2013-04-11 20:40:00,
2013-04-11 16:45:00,72.5,68.5,29.70,WSW,257,0.0,0.0,84,0.03,,,0.04,dv,2013-04-11 20:45:00,
2013-04-11 16:50:00,72.7,68.1,29.71,SW,233,6.4,6.4,82,0.01,,,0.04,dv,2013-04-11 20:50:00,
2013-04-11 16:55:00,72.9,66.6,29.69,South,185,4.8,4.8,76,0.01,,,0.04,dv,2013-04-11 20:55:00,
2013-04-11 17:00:00,73.3,66.7,29.69,North,8,3.2,3.2,75,0.01,,,0.04,dv,2013-04-11 21:00:00,
2013-04-11 17:10:00,74.3,66.8,29.69,East,92,4.8,4.8,72,0.01,,,0.04,dv,2013-04-11 21:10:00,
2013-04-11 17:15:00,74.8,67.5,29.69,WSW,247,4.8,4.8,73,0.01,,,0.04,dv,2013-04-11 21:15:00,
2013-04-11 17:20:00,75.3,68.0,29.68,SW,225,6.4,6.4,73,0.01,,,0.04,dv,2013-04-11 21:20:00,
2013-04-11 17:25:00,75.6,66.7,29.69,SSE,161,4.8,4.8,68,0.01,,,0.04,dv,2013-04-11 21:25:00,
2013-04-11 17:30:00,75.8,65.9,29.68,North,352,3.2,3.2,65,0.00,,,0.04,dv,2013-04-11 21:30:00,
2013-04-11 17:35:00,75.9,66.3,29.68,SW,217,1.6,1.6,66,0.00,,,0.04,dv,2013-04-11 21:35:00,
2013-04-11 17:40:00,75.8,65.9,29.68,West,262,3.2,3.2,65,0.00,,,0.04,dv,2013-04-11 21:40:00,
2013-04-11 17:45:00,75.5,65.6,29.68,ENE,75,3.2,3.2,65,0.00,,,0.04,dv,2013-04-11 21:45:00,
2013-04-11 17:50:00,75.3,65.1,29.68,SE,144,3.2,3.2,64,0.00,,,0.04,dv,2013-04-11 21:50:00,
2013-04-11 17:55:00,75.0,65.5,29.68,SE,144,3.2,3.2,66,0.00,,,0.04,dv,2013-04-11 21:55:00,
2013-04-11 18:00:00,74.7,64.5,29.67,SSW,203,4.8,4.8,64,0.00,,,0.04,dv,2013-04-11 22:00:00,
2013-04-11 18:05:00,74.5,64.7,29.67,SSW,203,0.0,0.0,65,0.00,,,0.04,dv,2013-04-11 22:05:00,
2013-04-11 18:10:00,74.4,64.9,29.67,South,191,3.2,3.2,66,0.00,,,0.04,dv,2013-04-11 22:10:00,
2013-04-11 18:15:00,74.3,64.8,29.67,South,191,1.6,1.6,66,0.00,,,0.04,dv,2013-04-11 22:15:00,
2013-04-11 18:20:00,74.2,64.7,29.66,SE,138,1.6,1.6,66,0.00,,,0.04,dv,2013-04-11 22:20:00,
2013-04-11 18:25:00,74.2,64.7,29.66,SSE,148,3.2,3.2,66,0.00,,,0.04,dv,2013-04-11 22:25:00,
2013-04-11 18:30:00,74.2,65.1,29.65,SE,135,3.2,3.2,67,0.00,,,0.04,dv,2013-04-11 22:30:00,
2013-04-11 18:35:00,74.1,65.0,29.66,South,177,3.2,3.2,67,0.00,,,0.04,dv,2013-04-11 22:35:00,
2013-04-11 18:40:00,74.0,64.9,29.66,South,188,3.2,3.2,67,0.00,,,0.04,dv,2013-04-11 22:40:00,
2013-04-11 18:45:00,73.9,64.8,29.66,SSE,164,1.6,1.6,67,0.00,,,0.04,dv,2013-04-11 22:45:00,
2013-04-11 18:50:00,73.9,65.1,29.67,SE,144,3.2,3.2,68,0.00,,,0.04,dv,2013-04-11 22:50:00,
2013-04-11 18:55:00,73.9,65.1,29.66,SSE,166,1.6,1.6,68,0.00,,,0.04,dv,2013-04-11 22:55:00,
2013-04-11 19:00:00,73.8,65.0,29.66,SSE,166,0.0,0.0,68,0.00,,,0.04,dv,2013-04-11 23:00:00,
2013-04-11 19:05:00,73.8,65.0,29.66,SSE,165,0.0,0.0,68,0.00,,,0.04,dv,2013-04-11 23:05:00,
2013-04-11 19:10:00,73.6,65.1,29.65,SSE,166,1.6,1.6,69,0.00,,,0.04,dv,2013-04-11 23:10:00,
2013-04-11 19:15:00,73.5,65.0,29.66,South,175,1.6,1.6,69,0.00,,,0.04,dv,2013-04-11 23:15:00,
2013-04-11 19:20:00,73.3,65.2,29.66,SE,144,8.1,8.1,70,0.00,,,0.04,dv,2013-04-11 23:20:00,
2013-04-11 19:25:00,73.2,65.4,29.65,ESE,102,1.6,1.6,71,0.00,,,0.04,dv,2013-04-11 23:25:00,
2013-04-11 19:30:00,73.0,65.5,29.65,ENE,76,4.8,4.8,72,0.00,,,0.04,dv,2013-04-11 23:30:00,
2013-04-11 19:35:00,72.7,65.2,29.65,ENE,77,0.0,0.0,72,0.00,,,0.04,dv,2013-04-11 23:35:00,
2013-04-11 19:45:00,72.3,65.5,29.65,SSW,193,1.6,1.6,74,0.00,,,0.04,dv,2013-04-11 23:45:00,
2013-04-11 19:50:00,72.1,65.6,29.65,South,170,3.2,3.2,75,0.00,,,0.04,dv,2013-04-11 23:50:00,
2013-04-11 19:55:00,71.9,65.7,29.65,SSE,147,4.8,4.8,76,0.00,,,0.04,dv,2013-04-11 23:55:00,
2013-04-11 20:00:00,71.6,65.4,29.64,South,187,1.6,1.6,76,0.00,,,0.04,dv,2013-04-12 00:00:00,
2013-04-11 20:05:00,71.4,65.5,29.64,SSE,164,3.2,3.2,77,0.00,,,0.04,dv,2013-04-12 00:05:00,
2013-04-11 20:10:00,71.2,65.6,29.64,ESE,117,1.6,1.6,78,0.00,,,0.04,dv,2013-04-12 00:10:00,
2013-04-11 20:15:00,71.0,65.7,29.64,SSE,156,1.6,1.6,79,0.00,,,0.04,dv,2013-04-12 00:15:00,
2013-04-11 20:20:00,70.9,65.8,29.64,SSE,156,1.6,1.6,80,0.00,,,0.04,dv,2013-04-12 00:20:00,
2013-04-11 20:25:00,70.8,65.8,29.63,SSE,156,0.0,0.0,80,0.00,,,0.04,dv,2013-04-12 00:25:00,
2013-04-11 20:30:00,70.6,65.8,29.63,SSE,155,1.6,1.6,81,0.00,,,0.04,dv,2013-04-12 00:30:00,
2013-04-11 20:35:00,70.5,65.7,29.62,East,94,3.2,3.2,81,0.00,,,0.04,dv,2013-04-12 00:35:00,
2013-04-11 20:40:00,70.3,65.8,29.63,East,94,0.0,0.0,82,0.00,,,0.04,dv,2013-04-12 00:40:00,
2013-04-11 20:45:00,70.2,65.7,29.64,South,190,1.6,1.6,82,0.00,,,0.04,dv,2013-04-12 00:45:00,
2013-04-11 20:50:00,70.1,65.6,29.63,SE,138,4.8,4.8,82,0.00,,,0.04,dv,2013-04-12 00:50:00,
2013-04-11 20:55:00,70.1,65.6,29.62,SSE,167,4.8,4.8,82,0.00,,,0.04,dv,2013-04-12 00:55:00,
2013-04-11 21:00:00,70.0,65.5,29.64,SSE,167,0.0,0.0,82,0.00,,,0.04,dv,2013-04-12 01:00:00,
2013-04-11 21:05:00,69.9,65.7,29.63,SSE,168,1.6,1.6,83,0.00,,,0.04,dv,2013-04-12 01:05:00,
2013-04-11 21:10:00,69.9,65.7,29.64,SE,127,1.6,1.6,83,0.00,,,0.04,dv,2013-04-12 01:10:00,
2013-04-11 21:15:00,69.8,66.4,29.62,South,189,4.8,4.8,86,0.12,,,0.16,dv,2013-04-12 01:15:00,
2013-04-11 21:20:00,69.6,66.5,29.63,South,188,0.0,0.0,87,0.12,,,0.16,dv,2013-04-12 01:20:00,
2013-04-11 21:30:00,69.3,66.4,29.63,ESE,108,0.0,0.0,88,0.12,,,0.16,dv,2013-04-12 01:30:00,
2013-04-11 21:35:00,69.0,66.4,29.63,SW,223,3.2,3.2,89,0.13,,,0.17,dv,2013-04-12 01:35:00,
2013-04-11 21:40:00,68.9,66.5,29.65,ENE,57,3.2,3.2,90,0.18,,,0.22,dv,2013-04-12 01:40:00,
2013-04-11 21:45:00,68.9,66.8,29.63,NNW,332,3.2,3.2,91,0.26,,,0.30,dv,2013-04-12 01:45:00,
2013-04-11 21:50:00,68.8,66.4,29.62,SSW,203,6.4,6.4,90,0.30,,,0.34,dv,2013-04-12 01:50:00,
2013-04-11 21:55:00,68.3,65.9,29.63,South,181,6.4,6.4,90,0.32,,,0.36,dv,2013-04-12 01:55:00,
2013-04-11 22:00:00,68.2,66.1,29.63,South,189,4.8,4.8,91,0.33,,,0.37,dv,2013-04-12 02:00:00,
2013-04-11 22:05:00,68.4,66.3,29.63,WNW,292,3.2,3.2,91,0.33,,,0.37,dv,2013-04-12 02:05:00,
2013-04-11 22:10:00,68.1,66.2,29.65,West,273,8.1,8.1,92,0.34,,,0.38,dv,2013-04-12 02:10:00,
2013-04-11 22:15:00,67.6,65.2,29.65,WSW,255,17.7,17.7,90,0.22,,,0.38,dv,2013-04-12 02:15:00,
2013-04-11 22:20:00,67.1,64.5,29.66,SW,224,6.4,6.4,89,0.23,,,0.39,dv,2013-04-12 02:20:00,
2013-04-11 22:25:00,66.6,64.3,29.66,WSW,237,3.2,3.2,90,0.24,,,0.40,dv,2013-04-12 02:25:00,
2013-04-11 22:30:00,66.4,64.3,29.66,SW,229,1.6,1.6,91,0.25,,,0.41,dv,2013-04-12 02:30:00,
2013-04-11 22:35:00,66.3,64.2,29.68,West,268,8.1,8.1,91,0.24,,,0.41,dv,2013-04-12 02:35:00,
2013-04-11 22:40:00,65.9,63.6,29.68,NW,305,9.7,9.7,90,0.20,,,0.42,dv,2013-04-12 02:40:00,
2013-04-11 22:45:00,65.3,62.7,29.67,ENE,63,11.3,11.3,89,0.14,,,0.44,dv,2013-04-12 02:45:00,
2013-04-11 22:50:00,64.7,61.9,29.68,WSW,255,11.3,11.3,88,0.11,,,0.45,dv,2013-04-12 02:50:00,
2013-04-11 22:55:00,64.3,61.8,29.68,SSW,195,6.4,6.4,89,0.11,,,0.47,dv,2013-04-12 02:55:00,
2013-04-11 23:00:00,64.0,61.7,29.68,SSW,204,4.8,4.8,90,0.14,,,0.51,dv,2013-04-12 03:00:00,
2013-04-11 23:05:00,63.7,61.4,29.68,SSW,204,0.0,0.0,90,0.19,,,0.56,dv,2013-04-12 03:05:00,
2013-04-11 23:10:00,63.5,61.2,29.67,SSW,204,0.0,0.0,90,0.19,,,0.57,dv,2013-04-12 03:10:00,
2013-04-11 23:15:00,63.4,61.1,29.70,SW,214,6.4,6.4,90,0.21,,,0.59,dv,2013-04-12 03:15:00,
2013-04-11 23:20:00,63.2,61.2,29.68,ESE,110,4.8,4.8,91,0.35,,,0.74,dv,2013-04-12 03:20:00,
2013-04-11 23:25:00,63.1,61.3,29.72,SSW,197,3.2,3.2,92,0.41,,,0.81,dv,2013-04-12 03:25:00,
2013-04-11 23:30:00,62.9,60.9,29.70,West,273,3.2,3.2,91,0.41,,,0.82,dv,2013-04-12 03:30:00,
2013-04-11 23:35:00,62.9,61.1,29.69,West,262,3.2,3.2,92,0.44,,,0.85,dv,2013-04-12 03:35:00,
2013-04-11 23:40:00,62.9,61.1,29.73,West,273,6.4,6.4,92,0.52,,,0.94,dv,2013-04-12 03:40:00,
2013-04-11 23:45:00,62.6,60.8,29.73,WSW,238,6.4,6.4,92,0.63,,,1.07,dv,2013-04-12 03:45:00,
2013-04-11 23:50:00,62.8,61.0,29.72,South,176,8.1,8.1,92,0.69,,,1.14,dv,2013-04-12 03:50:00,
2013-04-11 23:55:00,62.5,60.7,29.70,West,278,4.8,4.8,92,0.70,,,1.17,dv,2013-04-12 03:55:00,